Orbital Elements at Epoch 2459200.5 (2020-Dec-17.0) TDB
Reference: JPL 14 (heliocentric ecliptic J2000)
Element | Value | Uncertainty (1-sigma) | Units |
e | .2393420367588806 | 6.4102e-08 | |
a | 2.581644649577707 | 1.4719e-08 | au |
q | 1.963748560960112 | 1.7334e-07 | au |
i | 3.512180384838643 | 4.8459e-06 | deg |
node | 342.8737158047578 | 9.0836e-05 | deg |
peri | 91.39863472725949 | 9.215e-05 | deg |
M | 345.1333070592588 | 1.1595e-05 | deg |
tp | 2459263.068391885832 (2021-Feb-17.56839189) | 4.8875e-05 | TDB |
period | 1515.10636351224 4.15 | 1.2957e-05 3.547e-08 | d yr |
n | .2376070807104704 | 2.032e-09 | deg/d |
Q | 3.199540738195301 | 1.8242e-08 | au |
|
| | Orbit Determination Parameters
Additional Information
|